Regional Weather Roundup
Issued by NWS

Home | Current Version | Previous Version | Graphics & Text | Print | Product List | Glossary On
Versions: 1 2 3 4 5 6 7 8 9 10 11 12 13 14 15 16 17 18 19 20 21 22 23 24 25 26 27 28 29 30 31 32 33 34 35 36 37 38 39 40 41 42 43 44 45 46 47 48 49 50
000
ASUS43 KOAX 241102
RWRNE

WEATHER ROUNDUP FOR NEBRASKA
NATIONAL WEATHER SERVICE OMAHA NE
500 AM CST SAT FEB 24 2018

NOTES: SATELLITE DATA IS BEING USED TO AUGMENT CLOUD COVER ABOVE
       12000 FEET.
       "FAIR" INDICATES FEW OR NO CLOUDS BELOW 12,000 FEET WITH NO
       SIGNIFICANT WEATHER AND/OR OBSTRUCTIONS TO VISIBILITY.


NEZ001>004-019>022-054>056-241200-
NEBRASKA PANHANDLE

CITY           SKY/WX    TMP DP  RH WIND       PRES   REMARKS
SCOTTSBLUFF    CLOUDY    20  18  92 SE7       29.81F FOG     WCI  11
ALLIANCE       CLOUDY    19  18  95 SE12      29.80F FOG     WCI   7
CHADRON        LGT SNOW  23  20  88 S10       29.82F FOG     WCI  12
GORDON         CLOUDY    19  16  85 CALM      29.82F
KIMBALL        SNOW      22  22  98 S6        29.79F VSB 1/4 WCI  15
SIDNEY         CLOUDY    22  21  96 S9        29.81F FOG     WCI  12
$$

NEZ057>060-069>072-079>082-241200-
SOUTHWEST NEBRASKA

CITY           SKY/WX    TMP DP  RH WIND       PRES   REMARKS
NORTH PLATTE   CLOUDY    20  17  88 CALM      29.91F
IMPERIAL       LGT SNOW  21  21 100 SE8       29.86F FOG     WCI  11
LEXINGTON      CLOUDY    23  21  93 SE6       29.96S FOG     WCI  15
MCCOOK         CLOUDY    23  23 100 E6        29.93F FOG     WCI  16
OGALLALA       LGT SNOW  21  19  93 CALM      29.88F
$$

NEZ005>010-023>029-035>040-094-241200-
NORTH CENTRAL NEBRASKA

CITY           SKY/WX    TMP DP  RH WIND       PRES   REMARKS
VALENTINE      CLOUDY    15  11  83 CALM      29.94F
AINSWORTH      CLOUDY    15  14  95 CALM      29.94F
BROKEN BOW     CLOUDY    19  17  92 S6        29.92F FOG     WCI  11
O`NEILL        CLOUDY    10   9  92 CALM      29.97F
ORD            CLOUDY    15  14  95 SE7       29.96F FOG     WCI   5
THEDFORD       CLOUDY    18  16  91 CALM      29.91F
$$

NEZ041-046>049-061>064-073>077-083>087-241200-
SOUTH CENTRAL NEBRASKA

CITY           SKY/WX    TMP DP  RH WIND       PRES   REMARKS
GRAND ISLAND   FOG       19  18  95 CALM      30.00F VSB 1/2
AURORA         FOG       19  18  94 NE3       29.99F VSB 1/4
HASTINGS       FRZ RAIN  20  19  96 NE8       29.98F VSB 1   WCI  10
HEBRON         MIX PCPN  26  25  96 NE6       30.01F WCI  19
HOLDREGE       CLOUDY    22  22 100 E7        29.95F FOG     WCI  13
KEARNEY        LGT SNOW  19  18  95 CALM      29.98F FOG
YORK           LGT SNOW  19  19 100 NE6       30.00F VSB 3/4 WCI  11
$$

NEZ011>018-030>034-042>045-241200-
NORTHEAST NEBRASKA

CITY           SKY/WX    TMP DP  RH WIND       PRES   REMARKS
NORFOLK        FOG       18  17  96 E9        30.00F VSB 1/2 WCI   7
ALBION         FOG       18  16  92 SE6       30.01S VSB 3/4 WCI  10
BLAIR          LGT SNOW  22  21  94 NE7       30.03F WCI  14
COLUMBUS       MIX PCPN  18  17  96 E8        30.05F VSB 3/4 WCI   8
FREMONT        CLOUDY    21  21  98 E5        30.05F FOG     WCI  15
TEKAMAH        CLOUDY    22  20  92 SE3       30.07F
WAYNE          CLOUDY    20  19  97 E6        30.05F FOG     WCI  12
$$

NEZ050>053-065>068-078-088>093-241200-
SOUTHEAST NEBRASKA

CITY           SKY/WX    TMP DP  RH WIND       PRES   REMARKS
LINCOLN        CLOUDY    22  20  92 NE8       30.04F FOG     WCI  12
OMAHA EPPLEY   LGT SNOW  24  20  84 NE6       30.06F FOG     WCI  17
BEATRICE       CLOUDY    27  26  97 NE9       30.01S FOG     WCI  18
FALLS CITY     FRZ RAIN  30  28  92 E15       30.00F FOG     WCI  19
NEBRASKA CITY  MIX PCPN  28  28 100 NE10      30.01F WCI  18
PLATTSMOUTH    MIX PCPN  25  24  97 NE13      30.03F WCI  13
$$

NEZ044-045-051>053-067-241200-
OMAHA AREA

CITY           SKY/WX    TMP DP  RH WIND       PRES   REMARKS
OMAHA EPPLEY   LGT SNOW  24  20  84 NE6       30.06F FOG     WCI  17
BLAIR          LGT SNOW  22  21  94 NE7       30.03F WCI  14
FREMONT        CLOUDY    21  21  98 E5        30.05F FOG     WCI  15
MILLARD        LGT SNOW  25  22  90 NE5       30.05F WCI  19
OFFUTT AFB     LGTSLEET  23  21  92 NE10      30.04F WCI  13
PLATTSMOUTH    MIX PCPN  25  24  97 NE13      30.03F WCI  13
WAHOO          CLOUDY    22  20  93 NE8       30.04F FOG     WCI  12
$$



USA.gov is the U.S. government's official web portal to all federal, state and local government web resources and services.